Regional Weather Roundup
Issued by NWS

Home | Current Version | Previous Version | Text Only | Print | Product List | Glossary On
Versions: 1 2 3 4 5 6 7 8 9 10 11 12 13 14 15 16 17 18 19 20 21 22 23 24 25 26 27 28
000
ASUS45 KBOI 171610
RWRID

IDAHO REGIONAL WEATHER ROUNDUP
NATIONAL WEATHER SERVICE BOISE ID
1000 AM MDT THU AUG 17 2017

NOTE: "FAIR" INDICATES FEW OR NO CLOUDS BELOW 12000 FEET
WITH NO SIGNIFICANT WEATHER AND/OR OBSTRUCTIONS TO VISIBILITY

IDZ012-014-171700-
SOUTHWEST IDAHO


CITY           SKY/WX    TMP DP  RH WIND       PRES   REMARKS
BOISE          SUNNY     70  45  40 W6        30.11R
CALDWELL       SUNNY     73  49  42 W13       30.10R
MOUNTAIN HOME  SUNNY     76  46  34 NW16      30.10R
$$

IDZ016-017-171700-
SOUTHCENTRAL IDAHO


CITY           SKY/WX    TMP DP  RH WIND       PRES   REMARKS
BURLEY         SUNNY     71  43  36 W10       30.14R
JEROME         SUNNY     69  44  40 SW13      30.15R
TWIN FALLS     SUNNY     74  41  30 SW12      30.16R
$$

IDZ019>023-171700-
SOUTHEAST IDAHO


CITY           SKY/WX    TMP DP  RH WIND       PRES   REMARKS
IDAHO FALLS    SUNNY     69  38  32 S17       30.15S
POCATELLO      SUNNY     72  39  30 SW16      30.16R
REXBURG        SUNNY     62  43  49 W6        30.16R
$$

IDZ006-010-011-018-031-032-171700-
CENTRAL IDAHO MOUNTAINS


CITY           SKY/WX    TMP DP  RH WIND       PRES   REMARKS
MCCALL         SUNNY     61  39  44 CALM      30.17S
HAILEY         MOSUNNY   64  41  42 NW9       30.19S
STANLEY          N/A     54  34  46 CALM      30.27S
SALMON         SUNNY     62  43  49 CALM      30.16F
CHALLIS        SUNNY     63  37  38 CALM      30.19S
$$

IDZ002-004-006-007-026-171700-
NORTHERN IDAHO


CITY           SKY/WX    TMP DP  RH WIND       PRES   REMARKS
LEWISTON       SUNNY     70  47  43 N5        30.07R
LOWELL           N/A     62  46  55 CALM      30.11F
COEUR D`ALENE  SUNNY     68  49  50 S10       30.10R
MULLAN PASS    SUNNY     57  39  51 NW3       30.21R
$$




USA.gov is the U.S. government's official web portal to all federal, state and local government web resources and services.